RYR61TF EPWR-LIME

Flight info

Callsign RYR61TF
Flight time 1h 24m
Altitude 18000
Route ULGIL T707 TOMTI/N0441F360 DCT RUDAP DCT EBEDA DCT BADVI DCT BERAS DCT OLPIX/N0441F350 DCT EKPEB DCT RENTA DCT ATPED DCT LUSIL/N0345F190 T772 EKLIB
Aircraft B738/M-SDE2E3FGHIRWXY/LB1

Departure

Time 2026-05-05 20:19
Airport Copernicus Wrocław Airport (EPWR)

Arrival

Time 2026-05-05 21:44
Airport Il Caravaggio International Airport (LIME)
Time Latitude Longitude Altitude Speed Heading
2026-05-05 19:48 51.10848 16.88043 411 ft 0 kts 28°
2026-05-05 20:10 51.10837 16.88034 411 ft 2 kts 29°
2026-05-05 20:10 51.10823 16.88021 408 ft 2 kts 26°
2026-05-05 20:10 51.10807 16.88011 409 ft 2 kts
2026-05-05 20:11 51.10792 16.88019 408 ft 2 kts 321°
2026-05-05 20:11 51.10780 16.88037 403 ft 2 kts 308°
2026-05-05 20:11 51.10771 16.88058 405 ft 2 kts 301°
2026-05-05 20:11 51.10767 16.88068 407 ft 0 kts 297°
2026-05-05 20:13 51.10772 16.88053 405 ft 3 kts 296°
2026-05-05 20:13 51.10786 16.88008 408 ft 6 kts 296°
2026-05-05 20:13 51.10806 16.87942 409 ft 8 kts 296°
2026-05-05 20:14 51.10824 16.87883 411 ft 0 kts 295°
2026-05-05 20:14 51.10825 16.87878 411 ft 1 kts 295°
2026-05-05 20:14 51.10842 16.87823 408 ft 7 kts 295°
2026-05-05 20:14 51.10865 16.87750 410 ft 7 kts 297°
2026-05-05 20:15 51.10887 16.87679 408 ft 7 kts 296°
2026-05-05 20:15 51.10911 16.87600 407 ft 11 kts 296°
2026-05-05 20:15 51.10946 16.87483 410 ft 12 kts 290°
2026-05-05 20:15 51.10902 16.87386 412 ft 12 kts 207°
2026-05-05 20:16 51.10830 16.87331 412 ft 11 kts 205°
2026-05-05 20:16 51.10758 16.87276 412 ft 13 kts 205°
2026-05-05 20:16 51.10675 16.87286 411 ft 13 kts 134°
2026-05-05 20:16 51.10627 16.87429 411 ft 21 kts 116°
2026-05-05 20:17 51.10530 16.87749 410 ft 43 kts 116°
2026-05-05 20:17 51.10373 16.88254 411 ft 60 kts 116°
2026-05-05 20:17 51.10171 16.88885 408 ft 64 kts 116°
2026-05-05 20:17 51.09988 16.89483 412 ft 48 kts 117°
2026-05-05 20:18 51.09902 16.89715 409 ft 6 kts 99°
2026-05-05 20:18 51.09905 16.89736 409 ft 0 kts 62°
2026-05-05 20:18 51.09907 16.89737 409 ft 1 kts 33°
2026-05-05 20:18 51.09912 16.89732 409 ft 1 kts 330°
2026-05-05 20:19 51.09945 16.89638 410 ft 37 kts 298°
2026-05-05 20:19 51.10187 16.88857 410 ft 118 kts 296°
2026-05-05 20:19 51.10649 16.87356 516 ft 175 kts 299°
2026-05-05 20:19 51.11205 16.85635 1556 ft 167 kts 304°
2026-05-05 20:20 51.11764 16.83958 2349 ft 184 kts 302°
2026-05-05 20:20 51.12292 16.82102 3165 ft 182 kts 295°
2026-05-05 20:20 51.12841 16.80237 3840 ft 187 kts 296°
2026-05-05 20:20 51.13428 16.78369 4563 ft 190 kts 296°
2026-05-05 20:21 51.13762 16.76274 4938 ft 208 kts 262°
2026-05-05 20:21 51.13575 16.73880 5178 ft 229 kts 262°
2026-05-05 20:21 51.13437 16.71233 5414 ft 248 kts 264°
2026-05-05 20:21 51.13313 16.68470 6016 ft 252 kts 263°
2026-05-05 20:22 51.13187 16.65692 6725 ft 251 kts 263°
2026-05-05 20:22 51.13056 16.62880 7251 ft 263 kts 263°
2026-05-05 20:22 51.12910 16.59878 7763 ft 276 kts 263°
2026-05-05 20:22 51.12759 16.56805 8518 ft 280 kts 263°
2026-05-05 20:23 51.12605 16.53698 9356 ft 282 kts 263°
2026-05-05 20:23 51.12450 16.50604 10086 ft 287 kts 263°
2026-05-05 20:23 51.12280 16.47307 10323 ft 311 kts 263°
2026-05-05 20:23 51.12095 16.43754 10514 ft 334 kts 263°
2026-05-05 20:24 51.11899 16.39979 10920 ft 347 kts 263°
2026-05-05 20:24 51.11697 16.36108 11593 ft 352 kts 263°
2026-05-05 20:24 51.11494 16.32220 12351 ft 354 kts 264°
2026-05-05 20:24 51.11287 16.28289 13063 ft 358 kts 264°
2026-05-05 20:25 51.11076 16.24309 13740 ft 362 kts 264°
2026-05-05 20:25 51.10860 16.20297 14399 ft 365 kts 264°
2026-05-05 20:25 51.10646 16.16315 15068 ft 367 kts 263°
2026-05-05 20:25 51.10425 16.12250 15722 ft 370 kts 263°
2026-05-05 20:26 51.10201 16.08158 16370 ft 373 kts 263°
2026-05-05 20:26 51.09972 16.04041 17012 ft 375 kts 262°
2026-05-05 20:26 51.09524 15.99948 17628 ft 376 kts 253°
2026-05-05 20:26 51.08757 15.95947 18258 ft 378 kts 251°
2026-05-05 20:27 51.07944 15.91949 18801 ft 381 kts 250°
2026-05-05 20:27 51.07132 15.87982 19341 ft 383 kts 250°
2026-05-05 20:27 51.06309 15.83934 19878 ft 385 kts 250°
2026-05-05 20:27 51.05487 15.79861 20413 ft 388 kts 251°
2026-05-05 20:28 51.04666 15.75769 20946 ft 390 kts 251°
2026-05-05 20:28 51.03842 15.71650 21447 ft 392 kts 251°
2026-05-05 20:28 51.03012 15.67502 21945 ft 395 kts 251°
2026-05-05 20:28 51.02174 15.63317 22444 ft 398 kts 251°
2026-05-05 20:29 51.01341 15.59163 22940 ft 400 kts 251°
2026-05-05 20:29 51.00492 15.54937 23405 ft 402 kts 251°
2026-05-05 20:29 50.99634 15.50682 23804 ft 405 kts 251°
2026-05-05 20:29 50.98771 15.46404 24210 ft 406 kts 251°
2026-05-05 20:30 50.97906 15.42123 24582 ft 409 kts 250°
2026-05-05 20:30 50.97031 15.37813 24964 ft 411 kts 250°
2026-05-05 20:30 50.96045 15.33559 25329 ft 412 kts 243°
2026-05-05 20:30 50.94574 15.29659 25692 ft 412 kts 233°
2026-05-05 20:31 50.92731 15.26168 26057 ft 413 kts 224°
2026-05-05 20:31 50.90541 15.23210 26408 ft 415 kts 218°
2026-05-05 20:31 50.88252 15.20397 26751 ft 417 kts 218°
2026-05-05 20:31 50.85936 15.17599 27090 ft 419 kts 217°
2026-05-05 20:32 50.83642 15.14833 27396 ft 422 kts 217°
2026-05-05 20:32 50.81306 15.12003 27720 ft 423 kts 218°
2026-05-05 20:32 50.78966 15.09156 28064 ft 425 kts 218°
2026-05-05 20:32 50.76618 15.06288 28368 ft 427 kts 218°
2026-05-05 20:33 50.74263 15.03407 28668 ft 429 kts 218°
2026-05-05 20:33 50.71894 15.00506 28985 ft 430 kts 218°
2026-05-05 20:33 50.69532 14.97614 29432 ft 429 kts 218°
2026-05-05 20:33 50.67193 14.94755 29911 ft 426 kts 218°
2026-05-05 20:34 50.64857 14.91902 30277 ft 425 kts 218°
2026-05-05 20:34 50.62524 14.89056 30578 ft 425 kts 218°
2026-05-05 20:34 50.60174 14.86194 30880 ft 425 kts 218°
2026-05-05 20:34 50.57839 14.83354 31226 ft 424 kts 218°
2026-05-05 20:35 50.55507 14.80523 31559 ft 423 kts 218°
2026-05-05 20:35 50.53175 14.77694 31875 ft 422 kts 218°
2026-05-05 20:35 50.50846 14.74873 32167 ft 422 kts 218°
2026-05-05 20:35 50.48519 14.72057 32478 ft 422 kts 217°
2026-05-05 20:36 50.46225 14.69285 32794 ft 421 kts 217°
2026-05-05 20:36 50.43905 14.66485 33097 ft 421 kts 217°
2026-05-05 20:36 50.41583 14.63687 33369 ft 420 kts 217°
2026-05-05 20:36 50.39266 14.60898 33679 ft 419 kts 217°
2026-05-05 20:37 50.36953 14.58117 33951 ft 419 kts 217°
2026-05-05 20:37 50.35391 14.56241 34130 ft 418 kts 217°
2026-05-05 20:37 50.32327 14.52566 34482 ft 417 kts 218°
2026-05-05 20:37 50.30022 14.49806 34732 ft 416 kts 218°
2026-05-05 20:38 50.27756 14.47094 35008 ft 414 kts 218°
2026-05-05 20:38 50.25473 14.44367 35283 ft 412 kts 218°
2026-05-05 20:38 50.23192 14.41645 35532 ft 411 kts 218°
2026-05-05 20:38 50.20914 14.38931 35712 ft 411 kts 218°
2026-05-05 20:39 50.18627 14.36207 35760 ft 415 kts 218°
2026-05-05 20:39 50.14028 14.30743 35773 ft 414 kts 218°
2026-05-05 20:40 50.09474 14.25347 35766 ft 408 kts 218°
2026-05-05 20:40 50.04961 14.20011 35772 ft 406 kts 217°
2026-05-05 20:41 50.00466 14.14710 35776 ft 405 kts 217°
2026-05-05 20:41 49.95981 14.09432 35776 ft 404 kts 217°
2026-05-05 20:42 49.91515 14.04189 35789 ft 406 kts 217°
2026-05-05 20:42 49.86979 13.98879 35777 ft 409 kts 217°
2026-05-05 20:43 49.82426 13.93560 35778 ft 409 kts 217°
2026-05-05 20:43 49.77869 13.88249 35781 ft 410 kts 217°
2026-05-05 20:44 49.73336 13.82979 35781 ft 410 kts 217°
2026-05-05 20:44 49.68759 13.77671 35785 ft 410 kts 217°
2026-05-05 20:45 49.61925 13.69769 35794 ft 411 kts 217°
2026-05-05 20:45 49.57344 13.64487 35791 ft 411 kts 217°
2026-05-05 20:46 49.53530 13.60100 35795 ft 411 kts 217°
2026-05-05 20:46 49.48933 13.54824 35797 ft 411 kts 217°
2026-05-05 20:47 49.44350 13.49575 35798 ft 411 kts 216°
2026-05-05 20:47 49.39786 13.44362 35800 ft 410 kts 216°
2026-05-05 20:48 49.35205 13.39141 35805 ft 410 kts 216°
2026-05-05 20:48 49.30632 13.33940 35801 ft 409 kts 216°
2026-05-05 20:49 49.26058 13.28749 35802 ft 408 kts 216°
2026-05-05 20:49 49.21471 13.23629 35810 ft 407 kts 215°
2026-05-05 20:50 49.16841 13.18653 35811 ft 406 kts 214°
2026-05-05 20:50 49.12238 13.13730 35820 ft 406 kts 215°
2026-05-05 20:51 49.07620 13.08784 35818 ft 405 kts 215°
2026-05-05 20:51 49.03005 13.03841 35815 ft 405 kts 215°
2026-05-05 20:52 48.98387 12.98904 35820 ft 405 kts 215°
2026-05-05 20:52 48.93781 12.93990 35823 ft 404 kts 215°
2026-05-05 20:53 48.89176 12.89088 35829 ft 404 kts 215°
2026-05-05 20:53 48.84565 12.84192 35830 ft 404 kts 215°
2026-05-05 20:54 48.79958 12.79311 35831 ft 404 kts 215°
2026-05-05 20:54 48.75350 12.74439 35831 ft 403 kts 215°
2026-05-05 20:55 48.70746 12.69584 35833 ft 403 kts 215°
2026-05-05 20:55 48.66161 12.64759 35833 ft 403 kts 215°
2026-05-05 20:56 48.61553 12.59921 35839 ft 403 kts 215°
2026-05-05 20:56 48.56939 12.55087 35839 ft 403 kts 214°
2026-05-05 20:57 48.52324 12.50264 35837 ft 403 kts 214°
2026-05-05 20:57 48.47705 12.45447 35841 ft 403 kts 214°
2026-05-05 20:58 48.43109 12.40664 35844 ft 403 kts 214°
2026-05-05 20:58 48.38492 12.35871 35844 ft 403 kts 214°
2026-05-05 20:59 48.33870 12.31083 35852 ft 403 kts 214°
2026-05-05 20:59 48.29249 12.26306 35856 ft 403 kts 214°
2026-05-05 21:00 48.24627 12.21538 35861 ft 403 kts 214°
2026-05-05 21:00 48.20008 12.16784 35865 ft 402 kts 214°
2026-05-05 21:01 48.15212 12.12499 35856 ft 402 kts 204°
2026-05-05 21:01 48.09899 12.09995 35859 ft 403 kts 197°
2026-05-05 21:02 48.04500 12.07761 35852 ft 403 kts 198°
2026-05-05 21:02 47.99108 12.05498 35852 ft 402 kts 198°
2026-05-05 21:03 47.93713 12.03217 35860 ft 401 kts 198°
2026-05-05 21:03 47.88378 12.00960 35859 ft 401 kts 198°
2026-05-05 21:04 47.83001 11.98690 35855 ft 401 kts 198°
2026-05-05 21:04 47.77619 11.96423 35850 ft 401 kts 198°
2026-05-05 21:05 47.72241 11.94155 35860 ft 401 kts 199°
2026-05-05 21:05 47.66918 11.91657 35856 ft 401 kts 200°
2026-05-05 21:06 47.61610 11.89090 35856 ft 402 kts 200°
2026-05-05 21:06 47.56316 11.86563 35849 ft 401 kts 200°
2026-05-05 21:07 47.50994 11.84046 35864 ft 401 kts 200°
2026-05-05 21:07 47.45658 11.81530 35857 ft 402 kts 200°
2026-05-05 21:08 47.40321 11.79018 35863 ft 402 kts 200°
2026-05-05 21:08 47.34955 11.76663 35871 ft 405 kts 194°
2026-05-05 21:09 47.29382 11.75371 35888 ft 408 kts 192°
2026-05-05 21:09 47.23782 11.74119 35893 ft 406 kts 192°
2026-05-05 21:10 47.18210 11.72840 35881 ft 406 kts 193°
2026-05-05 21:10 47.12625 11.71546 35894 ft 406 kts 193°
2026-05-05 21:11 47.07057 11.70259 35913 ft 404 kts 193°
2026-05-05 21:11 47.01546 11.68733 35912 ft 398 kts 200°
2026-05-05 21:12 46.98991 11.67324 35661 ft 388 kts 208°
2026-05-05 21:12 46.96547 11.65668 35121 ft 387 kts 209°
2026-05-05 21:12 46.94095 11.63985 34482 ft 390 kts 209°
2026-05-05 21:12 46.91663 11.62323 33899 ft 391 kts 209°
2026-05-05 21:13 46.89191 11.60646 33265 ft 391 kts 209°
2026-05-05 21:13 46.86712 11.58976 32476 ft 394 kts 208°
2026-05-05 21:13 46.84226 11.57314 32287 ft 393 kts 208°
2026-05-05 21:13 46.81721 11.55639 32162 ft 399 kts 208°
2026-05-05 21:14 46.79170 11.53935 32013 ft 405 kts 208°
2026-05-05 21:14 46.76599 11.52224 31974 ft 404 kts 208°
2026-05-05 21:14 46.71586 11.48844 31943 ft 395 kts 212°
2026-05-05 21:15 46.67155 11.44216 31968 ft 391 kts 225°
2026-05-05 21:15 46.63469 11.38427 31965 ft 391 kts 229°
2026-05-05 21:16 46.59816 11.32552 31995 ft 390 kts 229°
2026-05-05 21:16 46.56193 11.26768 31526 ft 381 kts 229°
2026-05-05 21:17 46.54404 11.23925 30804 ft 383 kts 228°
2026-05-05 21:17 46.52598 11.21061 30348 ft 384 kts 228°
2026-05-05 21:17 46.50780 11.18183 30235 ft 390 kts 228°
2026-05-05 21:17 46.48941 11.15275 30133 ft 390 kts 228°
2026-05-05 21:18 46.47135 11.12421 30004 ft 388 kts 228°
2026-05-05 21:18 46.45306 11.09535 30044 ft 388 kts 228°
2026-05-05 21:18 46.41668 11.03804 30043 ft 384 kts 228°
2026-05-05 21:19 46.38070 10.98148 30026 ft 372 kts 228°
2026-05-05 21:19 46.36353 10.95449 30013 ft 357 kts 228°
2026-05-05 21:19 46.34691 10.92841 29738 ft 349 kts 228°
2026-05-05 21:20 46.33048 10.90267 29136 ft 349 kts 228°
2026-05-05 21:20 46.31398 10.87601 27863 ft 364 kts 231°
2026-05-05 21:20 46.29933 10.84600 26947 ft 372 kts 238°
2026-05-05 21:20 46.28744 10.81291 26407 ft 370 kts 242°
2026-05-05 21:21 46.27603 10.77969 25890 ft 367 kts 242°
2026-05-05 21:21 46.26475 10.74683 25407 ft 363 kts 241°
2026-05-05 21:21 46.25354 10.71434 24948 ft 359 kts 241°
2026-05-05 21:21 46.24246 10.68240 24506 ft 354 kts 241°
2026-05-05 21:22 46.23136 10.65057 24058 ft 351 kts 241°
2026-05-05 21:22 46.22042 10.61922 23631 ft 349 kts 240°
2026-05-05 21:22 46.20951 10.58799 23127 ft 348 kts 240°
2026-05-05 21:22 46.19864 10.55694 22650 ft 345 kts 240°
2026-05-05 21:23 46.18787 10.52619 22231 ft 340 kts 240°
2026-05-05 21:23 46.17725 10.49592 21804 ft 337 kts 241°
2026-05-05 21:23 46.16678 10.46613 21369 ft 334 kts 241°
2026-05-05 21:23 46.15628 10.43631 20971 ft 332 kts 241°
2026-05-05 21:24 46.14579 10.40656 20473 ft 333 kts 241°
2026-05-05 21:24 46.13525 10.37671 20024 ft 334 kts 241°
2026-05-05 21:24 46.12470 10.34685 19597 ft 333 kts 241°
2026-05-05 21:24 46.11419 10.31712 19171 ft 332 kts 241°
2026-05-05 21:25 46.10371 10.28752 18750 ft 330 kts 242°
2026-05-05 21:25 46.09344 10.25855 18386 ft 328 kts 241°
2026-05-05 21:25 46.08308 10.22929 17920 ft 328 kts 242°
2026-05-05 21:25 46.07270 10.20004 17485 ft 327 kts 242°
2026-05-05 21:26 46.06238 10.17098 17049 ft 325 kts 242°
2026-05-05 21:26 46.05191 10.14233 16671 ft 322 kts 238°
2026-05-05 21:26 46.03868 10.11634 16235 ft 320 kts 229°
2026-05-05 21:26 46.02294 10.09393 15864 ft 319 kts 220°
2026-05-05 21:27 46.00535 10.07436 15472 ft 319 kts 218°
2026-05-05 21:27 45.98757 10.05519 15042 ft 319 kts 218°
2026-05-05 21:27 45.96980 10.03605 14655 ft 319 kts 218°
2026-05-05 21:27 45.95236 10.01714 14508 ft 311 kts 218°
2026-05-05 21:28 45.93545 9.99869 14297 ft 305 kts 218°
2026-05-05 21:28 45.91885 9.98055 14227 ft 294 kts 218°
2026-05-05 21:28 45.90280 9.96301 14113 ft 286 kts 218°
2026-05-05 21:28 45.88704 9.94579 13872 ft 284 kts 218°
2026-05-05 21:29 45.87136 9.92861 13540 ft 283 kts 218°
2026-05-05 21:29 45.85575 9.91153 13230 ft 282 kts 218°
2026-05-05 21:29 45.84018 9.89451 12937 ft 280 kts 218°
2026-05-05 21:29 45.82468 9.87760 12734 ft 280 kts 218°
2026-05-05 21:30 45.80915 9.86070 12510 ft 281 kts 218°
2026-05-05 21:30 45.79360 9.84378 12301 ft 281 kts 218°
2026-05-05 21:30 45.77822 9.82705 12086 ft 281 kts 218°
2026-05-05 21:30 45.76258 9.81006 11875 ft 283 kts 218°
2026-05-05 21:31 45.74690 9.79304 11658 ft 283 kts 218°
2026-05-05 21:31 45.73119 9.77599 11435 ft 283 kts 217°
2026-05-05 21:31 45.71548 9.75899 11242 ft 283 kts 217°
2026-05-05 21:31 45.69969 9.74190 11021 ft 284 kts 217°
2026-05-05 21:32 45.68364 9.72610 10785 ft 285 kts 205°
2026-05-05 21:32 45.66444 9.71957 10580 ft 286 kts 182°
2026-05-05 21:32 45.64481 9.72391 10365 ft 289 kts 162°
2026-05-05 21:32 45.62626 9.73499 10162 ft 287 kts 158°
2026-05-05 21:33 45.60809 9.74676 9963 ft 283 kts 158°
2026-05-05 21:33 45.59639 9.75431 9958 ft 275 kts 158°
2026-05-05 21:33 45.57881 9.76546 9599 ft 276 kts 158°
2026-05-05 21:33 45.56128 9.77643 9357 ft 273 kts 159°
2026-05-05 21:34 45.53839 9.79067 9069 ft 269 kts 159°
2026-05-05 21:34 45.52665 9.79705 8916 ft 265 kts 167°
2026-05-05 21:34 45.50882 9.80216 8714 ft 260 kts 173°
2026-05-05 21:34 45.49098 9.80575 8477 ft 258 kts 174°
2026-05-05 21:35 45.47350 9.80915 8248 ft 256 kts 174°
2026-05-05 21:35 45.45587 9.81271 8018 ft 254 kts 173°
2026-05-05 21:35 45.43843 9.81636 7788 ft 252 kts 173°
2026-05-05 21:35 45.42132 9.82003 7568 ft 252 kts 173°
2026-05-05 21:36 45.40402 9.82397 7289 ft 252 kts 168°
2026-05-05 21:36 45.38876 9.83610 7004 ft 257 kts 135°
2026-05-05 21:36 45.37969 9.85802 6735 ft 260 kts 108°
2026-05-05 21:36 45.37806 9.88357 6489 ft 263 kts 83°
2026-05-05 21:37 45.38435 9.90775 6243 ft 264 kts 56°
2026-05-05 21:37 45.39764 9.92530 6047 ft 262 kts 29°
2026-05-05 21:37 45.41445 9.93449 6013 ft 262 kts 14°
2026-05-05 21:37 45.43221 9.94067 5982 ft 262 kts 12°
2026-05-05 21:38 45.44990 9.94655 5976 ft 260 kts 12°
2026-05-05 21:38 45.46749 9.95258 5974 ft 259 kts 13°
2026-05-05 21:38 45.48505 9.95875 5979 ft 260 kts 13°
2026-05-05 21:38 45.50276 9.96410 5974 ft 260 kts
2026-05-05 21:39 45.52079 9.96407 5987 ft 258 kts 356°
2026-05-05 21:39 45.53864 9.96272 5966 ft 252 kts 355°
2026-05-05 21:39 45.55589 9.96152 5679 ft 251 kts 356°
2026-05-05 21:39 45.57316 9.96046 5425 ft 245 kts 357°
2026-05-05 21:40 45.59004 9.95947 5137 ft 241 kts 357°
2026-05-05 21:40 45.60652 9.95684 4825 ft 235 kts 339°
2026-05-05 21:40 45.61905 9.94292 4385 ft 229 kts 302°
2026-05-05 21:40 45.62604 9.92279 4043 ft 222 kts 291°
2026-05-05 21:41 45.63132 9.90324 3815 ft 210 kts 288°
2026-05-05 21:41 45.63547 9.88301 3331 ft 212 kts 284°
2026-05-05 21:41 45.63911 9.86301 2913 ft 203 kts 284°
2026-05-05 21:41 45.64262 9.84374 2556 ft 192 kts 284°
2026-05-05 21:42 45.64589 9.82592 2316 ft 175 kts 284°
2026-05-05 21:42 45.64890 9.80955 2054 ft 165 kts 284°
2026-05-05 21:42 45.65181 9.79373 1812 ft 162 kts 285°
2026-05-05 21:42 45.65462 9.77847 1585 ft 159 kts 285°
2026-05-05 21:43 45.65744 9.76322 1372 ft 158 kts 285°
2026-05-05 21:43 45.66024 9.74804 1155 ft 157 kts 286°
2026-05-05 21:43 45.66303 9.73304 951 ft 154 kts 285°
2026-05-05 21:43 45.66570 9.71828 781 ft 151 kts 285°
2026-05-05 21:44 45.66819 9.70515 778 ft 117 kts 284°
2026-05-05 21:44 45.66985 9.69620 785 ft 63 kts 285°
2026-05-05 21:44 45.67021 9.69436 786 ft 7 kts 285°
2026-05-05 21:44 45.67038 9.69366 786 ft 7 kts 302°
2026-05-05 21:45 45.67078 9.69336 787 ft 7 kts 346°
2026-05-05 21:45 45.67124 9.69337 788 ft 6 kts 12°
2026-05-05 21:45 45.67166 9.69356 789 ft 6 kts 22°
2026-05-05 21:45 45.67187 9.69376 789 ft 0 kts 40°
2026-05-05 21:46 45.67197 9.69425 789 ft 14 kts 82°